Date,TemperatureHighF,TemperatureAvgF,TemperatureLowF,DewpointHighF,DewpointAvgF,DewpointLowF,HumidityHigh,HumidityAvg,HumidityLow,PressureMaxIn,PressureMinIn,WindSpeedMaxMPH,WindSpeedAvgMPH,GustSpeedMaxMPH,PrecipitationSumIn
2013-10-6,70.2,67.0,64.6,63.6,57.9,56.1,80,73,69,29.96,29.88,0,0,0,0.00
2013-10-7,66.4,52.1,32.7,56.3,44.1,27.6,92,75,49,30.33,29.92,15,5,15,0.11
2013-10-8,74.8,54.1,35.4,49.6,41.5,33.6,96,67,33,30.49,30.32,14,4,14,0.14
2013-10-9,79.5,56.1,39.2,53.1,43.4,37.6,95,68,28,30.54,30.42,14,2,14,0.00
2013-10-10,82.4,49.9,38.5,55.7,41.6,36.6,95,79,22,30.44,30.33,10,1,10,0.00
2013-10-11,84.9,57.6,34.5,52.5,41.4,33.0,96,64,21,30.38,30.28,12,2,12,0.00
2013-10-12,81.9,67.1,42.6,57.6,51.0,40.7,95,61,31,30.32,30.24,18,6,18,0.00
2013-10-13,68.9,57.8,41.4,57.5,45.0,36.4,93,66,32,30.58,30.31,17,5,17,0.00
2013-10-14,75.6,51.9,38.1,45.3,39.5,34.9,95,69,23,30.63,30.48,15,3,15,0.00
2013-10-15,65.7,52.0,35.2,59.1,47.7,33.6,95,86,67,30.49,30.03,21,6,21,0.11
2013-10-16,61.7,53.4,49.6,59.0,48.4,43.4,92,83,70,30.12,30.01,23,10,23,0.00
2013-10-17,52.5,49.2,43.7,48.3,46.2,41.8,93,89,83,30.11,29.95,19,7,19,0.12
2013-10-18,63.0,49.4,39.7,44.6,40.9,35.7,94,75,38,30.13,30.04,24,8,24,0.00
2013-10-19,51.3,43.8,39.2,41.9,38.3,31.1,93,82,52,30.11,29.95,27,8,27,0.18
2013-10-20,58.1,47.0,37.0,42.0,38.5,34.9,94,74,46,30.12,30.01,24,7,24,0.02
2013-10-21,55.4,49.3,39.7,46.9,41.0,32.1,88,73,58,30.07,30.01,24,12,24,0.02
2013-10-22,49.3,40.6,32.0,32.1,28.3,25.2,79,62,46,30.11,30.06,28,9,28,0.00
2013-10-23,46.8,38.1,31.5,34.2,29.3,22.9,92,73,43,30.09,29.91,24,6,24,0.00
2013-10-24,48.0,36.2,29.8,33.6,29.9,25.1,92,79,44,30.18,29.93,23,7,23,0.00
2013-10-25,46.4,37.1,29.3,34.1,28.7,24.6,95,74,46,30.31,30.07,22,9,22,0.00
2013-10-26,51.4,43.3,38.8,39.4,30.7,25.0,89,62,48,30.07,29.76,39,16,39,0.06
2013-10-27,54.1,41.4,31.1,34.6,30.2,26.5,91,66,41,30.06,29.97,21,7,21,0.01
2013-10-28,51.1,39.3,28.2,36.9,31.3,25.7,92,74,57,30.40,30.04,19,5,19,0.00
2013-10-29,54.3,43.0,37.2,37.2,31.9,27.8,77,65,48,30.44,30.23,14,4,14,0.00
2013-10-30,70.7,49.0,31.3,50.0,39.3,29.5,95,73,41,30.24,29.95,17,4,17,0.02
2013-10-31,61.3,58.9,52.7,59.0,56.8,50.4,96,93,89,29.95,29.15,33,13,33,0.93
2013-11-1,61.0,48.2,44.1,57.7,42.1,37.0,93,80,66,29.67,29.13,40,15,40,0.07
2013-11-2,45.7,42.0,33.3,43.4,38.3,29.5,95,87,76,30.11,29.65,19,6,19,0.18
2013-11-3,49.5,36.3,25.3,37.4,29.7,23.9,96,78,57,30.43,30.11,11,2,11,0.00
2013-11-4,54.5,40.8,30.6,33.5,29.4,23.5,87,66,34,30.44,30.27,24,10,24,0.00
2013-11-5,55.0,49.9,42.3,45.9,41.9,33.5,83,74,65,30.33,30.14,15,7,15,0.00
2013-11-6,55.0,51.3,41.2,51.7,45.3,37.1,92,81,58,30.14,29.77,42,14,42,0.14
2013-11-7,45.5,38.3,32.2,37.6,28.9,23.1,89,70,48,30.14,30.00,22,10,22,0.01
2013-11-8,46.4,35.6,29.1,29.9,26.1,22.2,89,70,44,30.27,30.11,20,6,20,0.00
2013-11-9,54.5,46.3,36.1,40.1,33.9,27.7,72,62,51,30.15,29.79,34,15,34,0.00
2013-11-10,49.3,42.0,33.6,35.0,29.8,26.3,79,62,46,30.26,29.90,26,10,26,0.00
2013-11-11,42.4,32.3,25.9,36.4,27.4,18.5,93,82,65,30.32,30.03,21,5,21,0.11
2013-11-12,34.5,26.1,18.3,22.3,16.9,13.4,87,69,47,30.53,30.32,24,5,24,0.00
2013-11-13,40.6,30.8,16.7,23.7,15.9,8.3,87,56,32,30.52,30.13,33,15,33,0.01
2013-11-14,51.8,40.5,31.1,25.7,20.0,16.3,56,44,33,30.14,29.94,34,17,34,0.00
2013-11-15,54.7,44.0,36.5,28.0,24.7,21.5,63,47,31,30.05,29.96,24,10,24,0.00
2013-11-16,57.2,47.8,37.2,52.5,40.9,27.3,90,77,62,30.07,29.77,29,10,29,0.01
2013-11-17,63.3,56.7,44.1,58.6,52.8,38.7,94,87,75,29.77,29.21,61,19,61,0.57
2013-11-18,45.3,38.7,33.8,39.8,29.0,21.4,81,68,61,30.13,29.48,50,16,50,0.00
2013-11-19,51.4,35.1,23.0,25.2,21.6,17.5,84,59,34,30.39,30.13,23,5,23,0.00
2013-11-20,50.0,34.7,20.7,32.1,23.7,17.7,91,67,29,30.41,30.21,22,6,22,0.00
2013-11-21,50.2,44.4,40.1,42.4,37.0,28.2,94,75,60,30.26,30.17,21,7,21,0.09
2013-11-22,44.6,38.0,26.6,43.3,34.0,22.2,95,85,67,30.36,30.13,29,8,29,0.04
2013-11-23,27.5,23.1,15.4,23.2,14.2,3.0,88,69,40,30.50,30.26,30,11,30,0.00
2013-11-24,25.9,18.4,13.3,13.4,9.0,5.4,80,67,48,30.57,30.36,21,8,21,0.00
2013-11-25,32.0,25.3,18.5,25.4,13.0,4.1,89,60,40,30.36,30.03,31,16,31,0.01
2013-11-26,32.2,29.8,26.6,27.9,25.7,21.3,91,84,79,30.07,29.93,18,8,18,0.00
2013-11-27,27.1,22.0,16.2,21.6,12.9,8.9,84,68,48,30.17,29.93,30,11,30,0.00
2013-11-28,27.7,22.3,14.4,20.1,14.9,9.9,85,73,54,30.40,30.17,17,5,17,0.00
2013-11-29,41.9,27.1,21.7,25.4,19.1,15.6,87,73,43,30.63,30.39,12,3,12,0.00
2013-11-30,48.2,35.4,25.7,29.4,24.5,19.7,81,65,46,30.50,30.07,24,9,24,0.00
2013-12-1,41.2,36.0,31.5,33.7,30.1,25.1,89,79,68,30.08,29.99,14,4,14,0.00
2013-12-2,45.9,33.4,24.3,29.3,24.8,18.9,89,73,42,30.00,29.88,14,2,14,0.00
2013-12-3,38.3,33.8,24.3,36.5,30.4,19.0,93,87,79,30.62,29.81,17,5,17,0.01
2013-12-4,58.5,46.9,37.4,55.2,44.5,36.4,97,91,81,29.88,29.59,24,7,24,0.05
2013-12-5,59.4,41.0,29.5,55.6,33.6,21.4,89,75,60,30.13,29.59,44,14,44,0.01
2013-12-6,29.5,20.7,0.0,22.2,20.1,19.7,74,54,70,30.38,30.12,14,6,14,0.00
2013-12-7,0.0,0.0,0.0,20.0,20.0,20.0,0,0,100,30.59,30.38,0,0,0,0.00
2013-12-8,0.0,0.0,0.0,20.0,20.0,20.0,0,0,100,30.56,29.95,0,0,0,0.00
2013-12-9,27.7,9.8,0.0,22.8,18.3,9.1,89,34,66,30.07,29.85,30,8,39,0.00
2013-12-10,20.7,16.2,8.2,17.8,9.2,-1.0,91,74,43,30.15,29.91,36,13,36,0.00
2013-12-11,22.8,13.7,3.7,16.0,7.7,-1.7,88,77,60,30.42,30.15,18,8,18,0.00
2013-12-12,20.3,11.6,-2.2,14.9,4.8,-5.8,89,74,44,30.42,30.14,34,12,34,0.00
2013-12-13,31.5,23.3,20.1,21.3,17.2,14.6,84,77,63,30.25,30.11,22,6,22,0.00
2013-12-14,21.2,18.9,16.3,18.2,15.9,12.6,93,88,75,30.24,29.82,20,8,20,0.00
2013-12-15,23.4,19.4,16.2,21.5,16.6,12.5,93,89,72,29.84,29.79,27,9,27,0.00
2013-12-16,35.2,18.0,0.1,18.3,9.0,-2.7,92,69,40,30.15,29.98,11,2,11,0.00
2013-12-17,28.0,21.5,11.7,24.0,18.5,9.3,94,88,78,29.99,29.84,25,9,25,0.00
2013-12-18,30.4,25.9,22.5,25.0,20.2,12.9,96,80,57,30.08,29.85,27,10,27,0.00
2013-12-19,40.8,35.0,28.6,33.7,28.8,16.8,94,78,61,29.97,29.82,19,6,21,0.00
2013-12-20,34.3,33.3,32.2,33.6,32.5,31.6,98,97,94,29.89,29.72,13,4,13,0.24
2013-12-21,32.7,32.1,31.6,32.5,31.7,31.0,99,98,96,29.85,29.67,10,1,10,0.59
2013-12-22,33.3,31.1,0.0,32.5,30.6,25.8,98,97,96,30.14,29.56,0,0,0,0.13
2013-12-23,27.3,24.3,16.2,26.1,21.8,11.7,97,90,80,30.46,30.13,0,0,0,0.01
2013-12-24,22.5,13.0,4.6,13.6,8.3,1.5,89,81,62,30.67,30.44,0,0,0,0.00
2013-12-25,23.0,18.3,8.8,21.4,15.0,5.5,94,86,80,30.63,30.24,0,0,0,0.00
2013-12-26,26.4,24.0,21.4,24.4,20.3,15.5,96,86,73,30.42,30.17,2,0,2,0.00
2013-12-27,39.9,32.8,25.0,31.3,27.9,21.7,95,82,69,30.45,30.20,28,6,28,0.09
2013-12-28,49.5,41.0,31.1,34.5,31.6,27.8,88,69,55,30.26,30.05,28,12,28,0.00
2013-12-29,43.2,33.4,18.5,32.0,25.1,11.0,93,72,58,30.19,29.88,23,10,23,0.00
2013-12-30,23.0,16.7,14.0,11.3,7.0,2.8,78,65,50,30.42,30.19,20,6,20,0.00
2013-12-31,17.2,14.3,11.3,13.1,9.0,3.3,88,79,65,30.47,30.20,22,10,22,0.00
2014-1-1,14.0,10.7,9.0,11.2,5.6,0.9,88,79,65,30.54,30.39,19,8,19,0.00
2014-1-2,13.5,9.3,-0.2,9.7,4.5,-6.5,88,80,66,31.12,30.27,30,14,30,0.00